FENGYUN 1C DEB, 36664

Orbit data source: Space-Track

FENGYUN 1C DEB, 36664 is space debris in SSO originally from a launch on Mon, 10 May 1999 UTC launched from the Taiyaun Space Center, China (TSC). Fengyun 1C debris stems from the Chinese weather satellite Fengyun-1C, which was intentionally destroyed by a Chinese anti-satellite missile in 2007. This event dramatically increased the amount of space debris, with thousands of trackable fragments posing hazards to satellites and human spaceflight. The Fengyun 1C debris cloud has become a focal point in discussions about space sustainability and the need for international regulations to prevent the creation of new debris.

Loading next visibility...
Identifier
36664, 1999-025DYJ
Orbit
SSO
Country
Flag of CNCN / PRC
Related business
Manufacturer
Unknown
Mission
Spacecraft
Bus & Motor
Unknown
Mass
Unknown
Launch date (UTC)
1999-05-10 (27 years ago)
Launch vehicle
Unknown
Launch site
Taiyaun Space Center, China (TSC)
Object type
Payload
Rocket body
Debris
Shape & HBR
Unknown shape, 0.1 m
Radar Cross Section
Medium (>0.1 m² and <1 m²)

Expand to show TLE details & history
Last TLE update: 3 days ago

TLE from 3 days ago
0 FENGYUN 1C DEB
1 36664U 99025DYJ 26148.28443207  .00000152  00000-0  82795-4 0  9994
2 36664  98.5866 172.7176 0171856 340.0532  19.3980 14.18035475661118
Epoch: 2026-05-28T06:49Z
TLE epoch observation values (Epoch: 2026-05-28T06:49:34.930Z)
Latitude
-0.00001°
Longitude
-175.50931°
Altitude
718.262 km
Speed
7.557 km/s
True Right ascension
11h 30m 52s
True Declination
0° 00' 00"
Sunlit
Object was in daylight at epoch
Visualization orbit readout
Latitude
Unknown
Longitude
Unknown
Altitude
Unknown
Speed
Unknown
Apparent Right ascension
Unknown
Apparent Declination
Unknown
Sunlit
N/A
Visualization observer readout
Local Sidereal Time
22:17:31
Azimuth
Unknown
Elevation
Unknown
Doppler factor
Unknown
Orbital elements
Apogee altitude
953.02 km
Perigee altitude
705.297 km
Semi-major axis
7,207.295 km
Eccentricity
0.01719
Inclination
98.5866°
RAAN
172.7176°
Arg. of periapsis
340.0532°
True anomaly
20.06557°
Mean anomaly
19.398°
Eccentric anomaly
19.73042°
Mean motion
3.54719 °/min
Orbital period
101.49 mins
BSTAR
0.000082795
Loading maneuver chart data...
Computing Atmospheric mass density...
Loading historical data...
Loading historical data...
Loading historical data...
Loading historical data...
Loading historical data...
Loading historical data...
Loading historical data...

Documentation

Showing up to 5 results
|